Miscellaneous Local Product
Issued by NWS Hastings, NE

Home | Current Version | Previous Version | Graphics & Text | Print | Product List | Glossary On
Versions: 1 2 3 4 5 6 7 8 9 10 11 12 13 14 15 16 17 18 19 20 21 22 23 24 25 26 27 28 29 30 31 32 33 34 35 36 37 38 39 40 41 42 43 44 45 46 47 48 49 50
000
AXUS43 KGID 020602
MISGRI

GID CWA HOURLY WEATHER ROUNDUP
NATIONAL WEATHER SERVICE HASTINGS NE
100 AM CDT SUN AUG 02 2015

NOTE: "FAIR" INDICATES FEW OR NO CLOUDS BELOW 12,000 FEET WITH NO
SIGNIFICANT WEATHER AND/OR OBSTRUCTIONS TO VISIBILITY.

...SOUTH CENTRAL NEBRASKA...

CITY           SKY/WX    TMP DP  RH WIND       PRES   REMARKS
GRAND ISLAND   PTCLDY    73  68  84 S8        29.92F
HASTINGS       CLEAR     73  67  81 S8        29.93F
KEARNEY        PTCLDY    72  64  78 S7        29.94S
ORD            PTCLDY    64  63  96 W3        29.92F
YORK           CLEAR     72  68  88 S7        29.92F
AURORA         PTCLDY    73  69  89 S7        29.92S
LEXINGTON      MOCLDY    70  64  83 CALM      29.95S
HOLDREGE       PTCLDY    71  61  70 SW6       29.95S
HEBRON         PTCLDY    75  64  67 SW8       29.93S

...NEBRASKA PANHANDLE...

CITY           SKY/WX    TMP DP  RH WIND       PRES   REMARKS
CHADRON        CLEAR     69  55  60 VRB5      29.96F
ALLIANCE       CLEAR     64  56  75 CALM      30.01F
SCOTTSBLUFF    PTCLDY    71  55  56 SE8       30.03S
SIDNEY         MOCLDY    69  55  60 SW12      30.07R

...WESTERN AND NORTH CENTRAL NEBRASKA...

CITY           SKY/WX    TMP DP  RH WIND       PRES   REMARKS
VALENTINE      NOT AVBL
AINSWORTH      CLEAR     69  61  74 SW7       29.94S
ONEILL         CLEAR     69  62  78 S7        29.89F
BROKEN BOW     MOCLDY    66  62  87 N5        29.95S
IMPERIAL       MOCLDY    73  55  53 SW8       29.98S
NORTH PLATTE   PTCLDY    64  61  90 CALM      29.97S
MCCOOK         CLOUDY    75  58  55 S8        29.95F

...EASTERN NEBRASKA...

CITY           SKY/WX    TMP DP  RH WIND       PRES   REMARKS
NORFOLK        CLEAR     66  64  93 CALM      29.90F
SO SIOUX CITY  CLEAR     68  63  84 E6        29.87F
TEKAMAH        CLEAR     70  68  93 S6        29.89F
COLUMBUS       CLEAR     64  59  82 CALM      29.90F
ALBION         PTCLDY    65  62  90 CALM      29.92S
OMAHA EPPLEY   CLEAR     76  72  87 S8        29.90F
MILLARD        CLEAR     75  72  89 E3        29.90F
LINCOLN        CLEAR     72  69  90 S7        29.91F
NEBRASKA CITY  CLEAR     73  69  89 S10       29.94S
BEATRICE       PTCLDY    75  68  77 S6        29.93S
FALLS CITY     CLEAR     72  63  73 S10       29.94S

...NORTHERN KANSAS...

CITY           SKY/WX    TMP DP  RH WIND       PRES   REMARKS
GOODLAND       CLOUDY    68  61  78 S6        30.04S
HILL CITY      MOCLDY    75  66  73 S7        29.96F
NORTON         CLEAR     73  57  56 S8        29.95F
PHILLIPSBURG   CLEAR     75  64  69 S6        29.95S
SMITH CENTER   CLEAR     72  63  73 S7        29.95S
HAYS           MOCLDY    73  63  68 S7        29.96F
RUSSELL        PTCLDY    72  67  84 S8        29.95S
CONCORDIA      PTCLDY    77  68  73 S12       29.94S
SALINA         PTCLDY    77  70  79 S7        29.94F
TOPEKA         PTCLDY    75  69  81 E3        29.96S



USA.gov is the U.S. government's official web portal to all federal, state and local government web resources and services.